Deer Park, WA
on Friday, December 7, 2012

Friday
Previous Day Next Day
Daily Summary
 ActualAverageRecord
Temperature
Mean Temperature °F 27°F  
Max Temperature 37°F 33°F 40°F (2007)
Min Temperature 20°F 20°F -6°F (2013)
Degree Days
Heating Degree Days 36 38  
Month to date heating degree days 184 263  
Since 1 July heating degree days 1921 2266  
Cooling Degree Days 0 0  
Month to date cooling degree days 0 0  
Year to date cooling degree days 232 187  
Moisture
Dew Point 30°F   
Average Humidity 91    
Maximum Humidity 100    
Minimum Humidity 82    
Precipitation
Precipitation 0.22 in 0.09 in 0.35 in (2004)
Month to date precipitation 1.40 0.61  
Year to date precipitation 25.51 20.00  
Wind
Wind Speed 4 mph   
Max Wind Speed 17 mph   
Max Gust Speed 23 mph   
Visibility 5 miles   
Events Fog , Rain , Snow   

Key: T is trace of precipitation, MM is missing value
Source: NWS Daily Summary
Time(PST)TemperatureDew PointHumidity Pressure Visibility Wind DirectionWind SpeedGust SpeedPrecipitationEvents Conditions
12:13 AM 28.4°F 28.4°F 100% 29.97 in 9.0 miles SSE 4.6 mph - N/A   Scattered Clouds
12:53 AM 28.0°F 28.0°F 100% 30.04 in 9.0 miles SSE 5.8 mph - N/A   Partly Cloudy
1:29 AM 28.4°F 28.4°F 100% 29.99 in 6.0 miles South 4.6 mph - N/A   Scattered Clouds
1:32 AM 28.4°F 28.4°F 100% 29.99 in 5.0 miles South 4.6 mph - N/A   Mostly Cloudy
1:45 AM 30.2°F 28.4°F 93% 29.99 in 7.0 miles South 4.6 mph - N/A   Mostly Cloudy
1:53 AM 30.9°F 30.0°F 96% 30.05 in 8.0 miles South 5.8 mph - N/A   Overcast
2:02 AM 30.2°F 30.2°F 100% 29.99 in 7.0 miles SSW 6.9 mph - N/A   Overcast
2:53 AM 30.9°F 30.0°F 96% 30.05 in 9.0 miles Calm Calm - N/A   Overcast
3:53 AM 30.9°F 30.0°F 96% 30.05 in 8.0 miles South 8.1 mph - N/A   Overcast
4:13 AM 30.2°F 30.2°F 100% 29.99 in 10.0 miles South 6.9 mph - N/A   Overcast
4:53 AM 30.9°F 30.0°F 96% 30.04 in 10.0 miles SSE 6.9 mph - N/A   Overcast
5:33 AM 30.2°F 30.2°F 100% 29.97 in 7.0 miles SSE 6.9 mph - N/A   Overcast
5:53 AM 30.9°F 30.0°F 96% 30.03 in 8.0 miles South 9.2 mph - N/A   Overcast
6:22 AM 30.2°F 30.2°F 100% 29.96 in 8.0 miles South 5.8 mph - N/A   Overcast
6:53 AM 30.9°F 30.0°F 96% 30.01 in 8.0 miles Calm Calm - N/A   Overcast
7:25 AM 30.2°F 30.2°F 100% 29.95 in 2.5 miles South 3.5 mph - 0.00 in Snow Light Snow
7:36 AM 30.2°F 30.2°F 100% 29.95 in 1.0 miles SSE 3.5 mph - 0.01 in Snow Light Snow
7:43 AM 30.2°F 30.2°F 100% 29.95 in 0.8 miles SSE 5.8 mph - 0.01 in Snow Light Snow
7:51 AM 30.2°F 30.2°F 100% 29.94 in 0.8 miles SSE 5.8 mph - 0.02 in Snow Light Snow
7:53 AM 30.9°F 30.9°F 100% 30.00 in 0.8 miles SSE 6.9 mph - 0.02 in Snow Light Snow
8:06 AM 30.2°F 30.2°F 100% 29.93 in 0.5 miles SSE 5.8 mph - 0.01 in Fog , Snow Snow
8:19 AM 30.2°F 30.2°F 100% 29.93 in 1.5 miles SSE 5.8 mph - 0.01 in Snow Light Snow
8:25 AM 30.2°F 30.2°F 100% 29.92 in 2.0 miles SE 5.8 mph - 0.01 in Snow Light Snow
8:32 AM 32.0°F 30.2°F 93% 29.91 in 3.0 miles SE 6.9 mph - 0.01 in Snow Light Snow
8:48 AM 32.0°F 32.0°F 100% 29.92 in 4.0 miles SE 5.8 mph - 0.01 in   Overcast
8:53 AM 32.0°F 32.0°F 100% 29.97 in 4.0 miles SSE 5.8 mph - 0.01 in   Overcast
8:59 AM 32.0°F 32.0°F 100% 29.92 in 1.5 miles South 6.9 mph - N/A   Overcast
9:09 AM 32.0°F 32.0°F 100% 29.91 in 0.8 miles South 6.9 mph - N/A   Overcast
9:15 AM 32.0°F 32.0°F 100% 29.91 in 2.0 miles South 8.1 mph - N/A   Overcast
9:23 AM 32.0°F 32.0°F 100% 29.90 in 5.0 miles South 5.8 mph - N/A   Overcast
9:53 AM 32.0°F 32.0°F 100% 29.95 in 4.0 miles SSE 5.8 mph - N/A   Overcast
10:41 AM 33.8°F 32.0°F 93% 29.87 in 1.8 miles SE 3.5 mph - 0.01 in Snow Light Snow
10:53 AM 33.1°F 33.1°F 100% 29.92 in 0.8 miles SE 3.5 mph - 0.01 in Snow Light Snow
11:13 AM 32.0°F 32.0°F 100% 29.84 in 0.5 miles SE 3.5 mph - 0.03 in Fog , Snow Snow
11:53 AM 32.0°F 32.0°F 100% 29.88 in 0.2 miles Calm Calm - 0.08 in Fog , Snow Heavy Snow
12:43 PM 33.8°F 33.8°F 100% 29.77 in 0.5 miles Calm Calm - 0.08 in Fog , Snow Snow
12:53 PM 33.1°F 33.1°F 100% 29.83 in 2.0 miles Calm Calm - 0.08 in Snow Light Snow
1:00 PM 33.8°F 33.8°F 100% 29.76 in 4.0 miles South 3.5 mph - 0.00 in Snow Light Snow
1:12 PM 33.8°F 33.8°F 100% 29.76 in 6.0 miles SSW 3.5 mph - 0.00 in Snow Light Snow
1:23 PM 33.8°F 33.8°F 100% 29.75 in 10.0 miles SW 3.5 mph - 0.00 in   Overcast
1:53 PM 35.1°F 33.1°F 92% 29.79 in 6.0 miles WSW 4.6 mph - 0.01 in Rain Light Rain
2:00 PM 35.6°F 33.8°F 93% 29.74 in 6.0 miles Variable 5.8 mph - 0.01 in Rain Rain
2:07 PM 33.8°F 33.8°F 100% 29.74 in 7.0 miles Variable 4.6 mph - 0.01 in Rain Rain
2:32 PM 33.8°F 33.8°F 100% 29.73 in 10.0 miles NNW 4.6 mph - 0.01 in   Overcast
2:53 PM 35.1°F 33.1°F 92% 29.79 in 10.0 miles WNW 3.5 mph - 0.01 in   Overcast
3:11 PM 35.6°F 33.8°F 93% 29.73 in 10.0 miles West 6.9 mph - N/A   Overcast
3:53 PM 36.0°F 33.1°F 89% 29.78 in 10.0 miles SW 8.1 mph - N/A   Mostly Cloudy
4:53 PM 36.0°F 30.9°F 82% 29.79 in 10.0 miles WSW 13.8 mph - N/A   Mostly Cloudy
6:25 PM 33.8°F 30.2°F 87% 29.76 in 4.0 miles Variable 3.5 mph - 0.00 in Snow Light Snow
6:46 PM 32.0°F 28.4°F 87% 29.76 in 9.0 miles WSW 8.1 mph - 0.00 in   Overcast
6:53 PM 32.0°F 28.9°F 88% 29.82 in 10.0 miles WSW 8.1 mph - 0.00 in   Overcast
7:53 PM 27.0°F 26.1°F 96% 29.84 in 10.0 miles Calm Calm - N/A   Clear
8:04 PM 24.8°F 24.8°F 100% 29.78 in 1.8 miles East 3.5 mph - N/A   Partly Cloudy
8:13 PM 26.6°F 24.8°F 93% 29.79 in 4.0 miles ENE 5.8 mph - N/A   Clear
8:51 PM 24.8°F 24.8°F 100% 29.80 in 1.8 miles Calm Calm - N/A   Clear
8:53 PM 23.0°F 23.0°F 100% 29.87 in 1.0 miles Calm Calm - N/A   Clear
8:59 PM 21.2°F 21.2°F 100% 29.80 in 0.5 miles Calm Calm - N/A Fog Light Freezing Fog
9:53 PM 21.9°F 19.9°F 92% 29.90 in 0.5 miles Calm Calm - N/A Fog Light Freezing Fog
10:10 PM 23.0°F 21.2°F 93% 29.84 in 1.2 miles Calm Calm - N/A   Partly Cloudy
10:15 PM 24.8°F 23.0°F 93% 29.84 in 3.0 miles Calm Calm - N/A   Clear
10:53 PM 26.1°F 23.0°F 88% 29.92 in 10.0 miles WSW 3.5 mph - N/A   Clear
11:53 PM 21.0°F 19.0°F 92% 29.96 in 10.0 miles SW 3.5 mph - N/A   Clear
Moon Phase
Dec. 07 Dec. 13 Dec. 20 Dec. 28 Jan. 04
Sunrise:07:25 AM (PST) Moon Rise:12:25 AM (PST)12/7
Sunset:03:56 PM (PST) Moon Set:12:18 PM (PST)12/7

Copyright © 2014 The Weather Underground, Inc.